TimeEDT,TemperatureF,Dew PointF,Humidity,Sea Level PressureIn,VisibilityMPH,Wind Direction,Wind SpeedMPH,Gust SpeedMPH,PrecipitationIn,Events,Conditions,WindDirDegrees,DateUTC
12:53 AM,62.1,57.9,86,30.07,8.0,Calm,Calm,-,N/A,,Clear,0,2013-05-10 04:53:00
1:53 AM,62.1,57.9,86,30.07,8.0,Calm,Calm,-,N/A,,Clear,0,2013-05-10 05:53:00
2:53 AM,59.0,57.0,93,30.05,7.0,Calm,Calm,-,N/A,,Clear,0,2013-05-10 06:53:00
3:53 AM,57.9,57.0,97,30.04,7.0,Calm,Calm,-,N/A,,Clear,0,2013-05-10 07:53:00
4:53 AM,57.9,55.9,93,30.01,6.0,Calm,Calm,-,N/A,,Clear,0,2013-05-10 08:53:00
5:53 AM,57.0,55.9,96,30.01,6.0,Calm,Calm,-,N/A,,Clear,0,2013-05-10 09:53:00
6:53 AM,57.9,55.9,93,30.03,7.0,Calm,Calm,-,N/A,,Clear,0,2013-05-10 10:53:00
7:53 AM,62.6,57.2,82,30.08,7.0,Calm,Calm,-,N/A,,Clear,0,2013-05-10 11:53:00
8:53 AM,66.2,59.0,78,30.09,8.0,SW,3.5,-,N/A,,Clear,230,2013-05-10 12:53:00
9:53 AM,70.0,60.1,71,30.06,10.0,WSW,10.4,-,N/A,,Clear,250,2013-05-10 13:53:00
10:53 AM,73.9,61.0,64,30.08,10.0,West,10.4,-,N/A,,Mostly Cloudy,270,2013-05-10 14:53:00
11:53 AM,75.0,60.1,60,30.08,10.0,SSW,10.4,16.1,N/A,,Clear,210,2013-05-10 15:53:00
12:53 PM,75.2,59.0,57,30.10,10.0,SSW,12.7,21.9,N/A,,Partly Cloudy,210,2013-05-10 16:53:00
1:53 PM,75.9,59.0,56,30.05,10.0,SW,10.4,-,N/A,,Mostly Cloudy,230,2013-05-10 17:53:00
2:53 PM,75.9,57.0,52,30.03,10.0,WSW,9.2,19.6,N/A,,Mostly Cloudy,240,2013-05-10 18:53:00
3:53 PM,75.9,57.0,52,30.00,10.0,WSW,9.2,-,N/A,,Scattered Clouds,250,2013-05-10 19:53:00
4:53 PM,73.9,57.0,55,29.99,10.0,Variable,3.5,-,N/A,,Scattered Clouds,0,2013-05-10 20:53:00
5:53 PM,73.0,57.9,59,29.98,10.0,SSW,4.6,-,N/A,,Clear,200,2013-05-10 21:53:00
6:53 PM,72.0,57.9,61,29.97,10.0,South,6.9,-,N/A,,Mostly Cloudy,190,2013-05-10 22:53:00
7:53 PM,71.1,55.9,59,29.96,10.0,South,6.9,-,N/A,,Overcast,190,2013-05-10 23:53:00
8:53 PM,70.0,55.9,61,29.97,10.0,SW,4.6,-,N/A,,Overcast,230,2013-05-11 00:53:00
9:53 PM,69.1,57.0,65,29.98,10.0,WSW,4.6,-,N/A,,Overcast,240,2013-05-11 01:53:00
10:53 PM,68.0,57.0,68,29.98,10.0,SW,6.9,-,N/A,,Overcast,230,2013-05-11 02:53:00
11:53 PM,66.9,57.0,70,29.98,10.0,SW,3.5,-,N/A,,Mostly Cloudy,220,2013-05-11 03:53:00